This demonstration page uses our WeatherBlox Daily Observations layout. Learn more.

Left ArrowRight Arrow

Hourly Observations for October 12, 2015

Temp ( °F °C ) Dew Point ( °F °C ) Humidity (%) Winds ( mph kmh ) Pressure ( in mb ) Visibility ( mi km ) Precip ( " mm )
12:15 am 00:15 Clear 50 10 50 10 100 100 N N/A 29.91 1013 10 16 N/A
12:35 am 00:35 Clear 50 10 50 10 100 100 N N/A 29.91 1013 10 16 N/A
12:55 am 00:55 Clear 48 9 48 9 100 100 N N/A 29.91 1013 10 16 N/A
1:15 am 01:15 Clear 48 9 48 9 100 100 N N/A 29.91 1013 10 16 N/A
1:35 am 01:35 Clear 48 9 48 9 100 100 N N/A 29.91 1013 10 16 N/A
1:55 am 01:55 Clear 48 9 48 9 100 100 N N/A 29.91 1013 10 16 N/A
2:15 am 02:15 Clear 48 9 48 9 100 100 N N/A 29.91 1013 10 16 N/A
2:35 am 02:35 Clear 48 9 48 9 100 100 N N/A 29.91 1013 10 16 N/A
2:55 am 02:55 Clear 46 8 46 8 100 100 N N/A 29.94 1014 10 16 N/A
3:15 am 03:15 Clear 46 8 46 8 100 100 N N/A 29.94 1014 10 16 N/A
3:35 am 03:35 Clear 46 8 46 8 100 100 N N/A 29.94 1014 10 16 N/A
3:55 am 03:55 Clear 48 9 48 9 100 100 N N/A 29.91 1013 10 16 N/A
4:15 am 04:15 Clear 45 7 45 7 100 100 N N/A 29.94 1014 10 16 N/A
4:35 am 04:35 Clear 46 8 46 8 100 100 N N/A 29.94 1014 10 16 N/A
4:55 am 04:55 Clear 45 7 45 7 100 100 NW 3 6 29.94 1014 10 16 N/A
5:15 am 05:15 Clear 45 7 45 7 100 100 NNW 3 6 29.94 1014 10 16 N/A
5:35 am 05:35 Clear 46 8 46 8 100 100 N N/A 29.94 1014 10 16 N/A
5:55 am 05:55 Clear 46 8 46 8 100 100 N N/A 29.94 1014 10 16 N/A
6:15 am 06:15 Clear 43 6 43 6 100 100 N N/A 29.94 1014 10 16 N/A
6:35 am 06:35 Clear 45 7 45 7 100 100 N N/A 29.94 1014 10 16 N/A
6:55 am 06:55 Clear 45 7 45 7 100 100 N N/A 29.94 1014 10 16 N/A
7:15 am 07:15 Clear 45 7 45 7 100 100 N N/A 29.94 1014 10 16 N/A
7:35 am 07:35 Sunny 45 7 45 7 100 100 N N/A 29.94 1014 10 16 N/A
7:55 am 07:55 Sunny 45 7 45 7 100 100 N N/A 29.94 1014 10 16 N/A
8:15 am 08:15 Sunny 46 8 46 8 100 100 N N/A 29.94 1014 10 16 N/A
8:35 am 08:35 Sunny 48 9 48 9 100 100 N N/A 29.91 1013 10 16 N/A
8:55 am 08:55 Sunny 52 11 52 11 100 100 N N/A 29.91 1013 10 16 N/A
9:15 am 09:15 Sunny 54 12 52 11 94 94 N N/A 29.91 1013 10 16 N/A
9:35 am 09:35 Sunny 55 13 54 12 94 94 N N/A 29.91 1013 10 16 N/A
9:55 am 09:55 Sunny 59 15 54 12 82 82 WNW 6 9 29.88 1012 10 16 N/A
10:15 am 10:15 Sunny 61 16 55 13 83 83 S 3 6 29.88 1012 10 16 N/A
10:35 am 10:35 Sunny 63 17 55 13 77 77 N N/A 29.88 1012 10 16 N/A
10:55 am 10:55 Sunny 64 18 55 13 73 73 N N/A 29.88 1012 10 16 N/A
11:15 am 11:15 Sunny 64 18 55 13 73 73 N N/A 29.88 1012 10 16 N/A
11:35 am 11:35 Sunny 68 20 55 13 64 64 N N/A 29.88 1012 10 16 N/A
11:55 am 11:55 Sunny 68 20 54 12 60 60 N N/A 29.88 1012 10 16 N/A
12:15 pm 12:15 Sunny 70 21 55 13 60 60 SSE 6 9 29.85 1011 10 16 N/A
12:35 pm 12:35 Sunny 72 22 55 13 57 57 SSE 3 6 29.85 1011 10 16 N/A
12:55 pm 12:55 Sunny 73 23 55 13 53 53 S 10 17 29.85 1011 10 16 N/A
1:15 pm 13:15 Sunny 73 23 54 12 50 50 SSE 6 9 29.83 1010 10 16 N/A
1:35 pm 13:35 Sunny 73 23 54 12 50 50 S 9 15 29.83 1010 10 16 N/A
1:55 pm 13:55 Sunny 73 23 54 12 50 50 SSW 6 9 29.83 1010 10 16 N/A
2:15 pm 14:15 Sunny 75 24 52 11 44 44 SSW 3 6 29.80 1009 10 16 N/A
2:35 pm 14:35 Sunny 75 24 52 11 44 44 SSE 9 15 29.80 1009 10 16 N/A
2:55 pm 14:55 Sunny 75 24 54 12 47 47 S 9 15 29.77 1008 10 16 N/A
3:15 pm 15:15 Sunny 77 25 54 12 44 44 S 14 22 29.77 1008 10 16 N/A
3:35 pm 15:35 Sunny 77 25 54 12 44 44 S 10 17 29.77 1008 10 16 N/A
3:55 pm 15:55 Sunny 77 25 55 13 47 47 S 12 19 29.77 1008 10 16 N/A
4:15 pm 16:15 Sunny 77 25 54 12 44 44 S 7 11 29.74 1007 10 16 N/A
4:35 pm 16:35 Sunny 77 25 54 12 44 44 S 12 19 29.74 1007 10 16 N/A
4:55 pm 16:55 Sunny 77 25 55 13 47 47 S 12 19 29.74 1007 10 16 N/A
5:15 pm 17:15 Sunny 77 25 55 13 47 47 S 7 11 29.74 1007 10 16 N/A
5:35 pm 17:35 Sunny 75 24 57 14 54 54 S 9 15 29.74 1007 10 16 N/A
5:55 pm 17:55 Sunny 73 23 59 15 61 61 S 12 19 29.74 1007 10 16 N/A
6:15 pm 18:15 Sunny 73 23 57 14 57 57 S 12 19 29.74 1007 10 16 N/A
6:35 pm 18:35 Sunny 72 22 57 14 61 61 S 9 15 29.74 1007 10 16 N/A
6:55 pm 18:55 Clear 70 21 57 14 64 64 S 8 13 29.74 1007 10 16 N/A
7:15 pm 19:15 Clear 70 21 57 14 64 64 SSE 9 15 29.74 1007 10 16 N/A
7:35 pm 19:35 Clear 70 21 55 13 60 60 SSE 7 11 29.74 1007 10 16 N/A
7:55 pm 19:55 Clear 68 20 55 13 64 64 SSE 5 7 29.74 1007 10 16 N/A
8:15 pm 20:15 Clear 68 20 55 13 64 64 SSE 3 6 29.74 1007 10 16 N/A
8:35 pm 20:35 Clear 64 18 55 13 73 73 S 3 6 29.74 1007 10 16 N/A
8:55 pm 20:55 Clear 64 18 55 13 73 73 S 5 7 29.74 1007 10 16 N/A
9:15 pm 21:15 Clear 64 18 55 13 73 73 S 3 6 29.74 1007 10 16 N/A
9:35 pm 21:35 Clear 63 17 55 13 77 77 SSE 6 9 29.71 1006 10 16 N/A
9:55 pm 21:55 Clear 63 17 55 13 77 77 SSE 3 6 29.71 1006 10 16 N/A
10:15 pm 22:15 Clear 63 17 55 13 77 77 SSE 6 9 29.71 1006 10 16 N/A
10:35 pm 22:35 Clear 61 16 55 13 83 83 S 5 7 29.71 1006 10 16 N/A
10:55 pm 22:55 Clear 61 16 57 14 88 88 S 5 7 29.71 1006 10 16 N/A
11:15 pm 23:15 Clear 61 16 57 14 88 88 SSW 7 11 29.71 1006 10 16 N/A
11:35 pm 23:35 Clear 59 15 57 14 94 94 S 3 6 29.68 1005 10 16 N/A
11:55 pm 23:55 Clear 59 15 55 13 88 88 S 3 6 29.68 1005 10 16 N/A

Powered by AerisWeather